AMAZONAS 2

Last updated on Tue Oct 08 2024 00:02:38 GMT+0000 (Coordinated Universal Time)

1 35942U 09054A 24281.31646586 -.00000271 00000+0 00000+0 0 9996 2 35942 0.2068 94.7708 0005117 105.9784 228.8527 1.00269994 54984
UTC large
Height (km)
Speed (km/s)
/
Latitude / Longitude
Inclination (degrees)
Orbital Period (minutes)
Azimuth
Elevation
Range (km)
Doppler Factor

Next 0 passes for location: London (51.5072 / 0.1276)

Sorry there are no passes over London.